Litchfield, MN

5:39 PM CDT on May 26, 2017 (GMT -0500)
Litchfield Municipal

Weather History for KLJF - April, 2014

Change the Weather History Date:

Tuesday, April 1, 2014

  Actual Average Record
Temperature  
Mean Temperature 27 °F -  
Max Temperature 35 °F 48 °F 80 °F (2015)
Min Temperature 19 °F 26 °F -1 °F (1975)
Degree Days  
Heating Degree Days 38    
Moisture  
Dew Point 22 °F    
Average Humidity 84    
Maximum Humidity 100    
Minimum Humidity 74    
Precipitation  
Precipitation 0.00 in - - ()
Sea Level Pressure  
Sea Level Pressure 29.87 in    
Wind  
Wind Speed 15 mph (WNW)    
Max Wind Speed 28 mph    
Max Gust Speed 39 mph    
Visibility 9 miles    
Events Snow    
Averages and records for this station are not official NWS values.
T = Trace of Precipitation, MM = Missing Value Source: NWS Daily Summary

Daily Weather History Graph

Daily Weather History Graph

Search for Another Location

Airport or City:

Trip Planner

Search our weather history database for the weather conditions in past years. The results will help you decide how hot, cold, wet, or windy it might be!

Date:

Astronomy

Apr. 01, 2014 Rise Set
Actual Time 6:58 AM CDT 7:45 PM CDT
Civil Twilight 6:28 AM CDT 8:15 PM CDT
Nautical Twilight 5:53 AM CDT 8:51 PM CDT
Astronomical Twilight 5:16 AM CDT 9:28 PM CDT
Moon 7:56 AM CDT (4/1) 10:16 PM CDT (4/1)
Length of Visible Light 13h 46m
Length of Day
12h 47m
Waxing Crescent, 5% of the Moon is Illuminated
Apr 1
Waxing Crescent
Apr 7
First Quarter
Apr 15
Full
Apr 22
Last Quarter
Apr 29
New

Hourly Weather History & Observations

Time (CDT) Temp. Windchill Dew Point Humidity Pressure Visibility Wind Dir Wind Speed Gust Speed Precip Events Conditions
12:13 AM 35.6 °F - 33.8 °F 93% 29.40 in 10.0 mi Calm Calm - N/A   Unknown
12:33 AM 35.6 °F 29.2 °F 33.8 °F 93% 29.41 in 7.0 mi WNW 8.1 mph - N/A   Overcast
12:52 AM 35.6 °F 27.5 °F 35.6 °F 100% 29.44 in 4.0 mi NNW 11.5 mph 18.4 mph N/A   Overcast
1:13 AM 32.0 °F 20.5 °F 32.0 °F 100% 29.47 in 3.0 mi NW 18.4 mph 27.6 mph N/A   Light Drizzle
1:33 AM 28.4 °F 13.8 °F 28.4 °F 100% 29.50 in 4.0 mi WNW 25.3 mph 39.1 mph N/A   Overcast
1:52 AM 26.6 °F 12.4 °F 26.6 °F 100% 29.51 in 5.0 mi NW 21.9 mph 31.1 mph N/A   Overcast
2:13 AM 26.6 °F 11.4 °F 24.8 °F 93% 29.54 in 10.0 mi NW 25.3 mph 34.5 mph N/A   Overcast
2:32 AM 24.8 °F 11.1 °F 23.0 °F 93% 29.56 in 5.0 mi NW 18.4 mph 35.7 mph N/A   Overcast
2:53 AM 24.8 °F 9.6 °F 21.2 °F 86% 29.58 in 10.0 mi NW 23.0 mph 29.9 mph N/A   Overcast
3:13 AM 23.0 °F 7.6 °F 19.4 °F 86% 29.59 in 10.0 mi NW 21.9 mph 36.8 mph N/A   Overcast
3:32 AM 23.0 °F 6.6 °F 19.4 °F 86% 29.61 in 10.0 mi NW 25.3 mph 35.7 mph N/A   Overcast
3:53 AM 23.0 °F 6.0 °F 19.4 °F 86% 29.62 in 10.0 mi NW 27.6 mph 32.2 mph N/A   Overcast
4:13 AM 21.2 °F 4.5 °F 19.4 °F 93% 29.64 in 7.0 mi NW 24.2 mph 31.1 mph N/A   Overcast
4:32 AM 21.2 °F 4.9 °F 19.4 °F 93% 29.65 in 10.0 mi NW 23.0 mph 33.4 mph N/A   Overcast
4:53 AM 21.2 °F 6.0 °F 17.6 °F 86% 29.68 in 5.0 mi NW 19.6 mph 32.2 mph N/A Snow Light Snow
5:13 AM 19.4 °F 3.2 °F 17.6 °F 93% 29.69 in 4.0 mi NW 20.7 mph 29.9 mph N/A Snow Light Snow
5:32 AM 19.4 °F 1.4 °F 17.6 °F 93% 29.70 in 5.0 mi NW 26.5 mph 33.4 mph N/A Snow Light Snow
5:53 AM 19.4 °F 4.1 °F 17.6 °F 93% 29.72 in 7.0 mi NW 18.4 mph 31.1 mph N/A Snow Light Snow
6:13 AM 19.4 °F 3.6 °F 15.8 °F 86% 29.74 in 10.0 mi NW 19.6 mph 34.5 mph N/A Snow Light Snow
6:32 AM 19.4 °F 3.2 °F 17.6 °F 93% 29.76 in 4.0 mi NW 20.7 mph 31.1 mph N/A Snow Light Snow
6:53 AM 19.4 °F 2.8 °F 17.6 °F 93% 29.78 in 4.0 mi NW 21.9 mph 33.4 mph N/A Snow Light Snow
7:12 AM 19.4 °F 1.4 °F 15.8 °F 86% 29.79 in 5.0 mi NW 26.5 mph 34.5 mph N/A   Overcast
7:33 AM 19.4 °F 2.1 °F 17.6 °F 93% 29.80 in 2.5 mi NW 24.2 mph 29.9 mph N/A Snow Light Snow
7:53 AM 19.4 °F 4.1 °F 15.8 °F 86% 29.81 in 3.0 mi NW 18.4 mph 31.1 mph N/A Snow Light Snow
8:12 AM 19.4 °F 4.1 °F 15.8 °F 86% 29.82 in 10.0 mi NW 18.4 mph 32.2 mph N/A   Overcast
8:33 AM 19.4 °F 3.2 °F 15.8 °F 86% 29.83 in 10.0 mi NW 20.7 mph 29.9 mph N/A   Overcast
8:53 AM 21.2 °F 7.8 °F 17.6 °F 86% 29.85 in 10.0 mi NW 15.0 mph 29.9 mph N/A   Overcast
9:12 AM 21.2 °F 6.4 °F 17.6 °F 86% 29.86 in 10.0 mi NW 18.4 mph 29.9 mph N/A   Overcast
9:33 AM 21.2 °F 6.4 °F 17.6 °F 86% 29.87 in 10.0 mi NW 18.4 mph 26.5 mph N/A   Overcast
9:53 AM 23.0 °F 8.0 °F 19.4 °F 86% 29.88 in 10.0 mi NW 20.7 mph 26.5 mph N/A   Mostly Cloudy
10:12 AM 24.8 °F 12.4 °F 17.6 °F 74% 29.89 in 10.0 mi NW 15.0 mph 28.8 mph N/A   Mostly Cloudy
10:33 AM 24.8 °F 10.7 °F 17.6 °F 74% 29.91 in 10.0 mi WNW 19.6 mph 25.3 mph N/A   Mostly Cloudy
10:53 AM 24.8 °F 12.9 °F 19.4 °F 80% 29.92 in 10.0 mi WNW 13.8 mph 24.2 mph N/A   Overcast
11:13 AM 24.8 °F 13.4 °F 19.4 °F 80% 29.93 in 10.0 mi West 12.7 mph 21.9 mph N/A   Overcast
11:33 AM 24.8 °F 11.9 °F 19.4 °F 80% 29.95 in 10.0 mi West 16.1 mph 23.0 mph N/A   Overcast
11:53 AM 24.8 °F 10.7 °F 19.4 °F 80% 29.95 in 10.0 mi WNW 19.6 mph 24.2 mph N/A   Overcast
12:13 PM 24.8 °F 12.9 °F 19.4 °F 80% 29.96 in 10.0 mi WNW 13.8 mph 24.2 mph N/A   Overcast
12:33 PM 26.6 °F 13.8 °F 19.4 °F 74% 29.96 in 10.0 mi WNW 17.3 mph 21.9 mph N/A   Mostly Cloudy
12:53 PM 26.6 °F 14.7 °F 19.4 °F 74% 29.96 in 10.0 mi WNW 15.0 mph 21.9 mph N/A   Scattered Clouds
1:13 PM 26.6 °F 15.7 °F 21.2 °F 80% 29.96 in 10.0 mi WNW 12.7 mph 20.7 mph N/A   Mostly Cloudy
1:33 PM 28.4 °F 17.5 °F 21.2 °F 74% 29.97 in 10.0 mi WNW 13.8 mph 20.7 mph N/A   Mostly Cloudy
1:53 PM 28.4 °F 16.6 °F 21.2 °F 74% 29.97 in 10.0 mi WNW 16.1 mph 20.7 mph N/A   Mostly Cloudy
2:13 PM 28.4 °F 18.0 °F 21.2 °F 74% 29.97 in 10.0 mi WNW 12.7 mph 23.0 mph N/A   Scattered Clouds
2:33 PM 28.4 °F 19.1 °F 23.0 °F 80% 29.98 in 10.0 mi West 10.4 mph 20.7 mph N/A   Scattered Clouds
2:53 PM 30.2 °F 19.8 °F 23.0 °F 75% 29.98 in 10.0 mi WNW 13.8 mph 19.6 mph N/A   Scattered Clouds
3:12 PM 30.2 °F 20.8 °F 23.0 °F 75% 29.99 in 10.0 mi West 11.5 mph 18.4 mph N/A   Scattered Clouds
3:33 PM 30.2 °F 19.8 °F 23.0 °F 75% 29.99 in 10.0 mi WNW 13.8 mph 18.4 mph N/A   Scattered Clouds
3:53 PM 30.2 °F 20.2 °F 23.0 °F 75% 29.99 in 10.0 mi WNW 12.7 mph 20.7 mph N/A   Clear
4:12 PM 30.2 °F 20.2 °F 23.0 °F 75% 29.99 in 10.0 mi WNW 12.7 mph 19.6 mph N/A   Clear
4:33 PM 32.0 °F 22.5 °F 24.8 °F 75% 29.99 in 10.0 mi West 12.7 mph 17.3 mph N/A   Clear
4:53 PM 32.0 °F 22.5 °F 24.8 °F 75% 30.00 in 10.0 mi WNW 12.7 mph - N/A   Clear
5:12 PM 32.0 °F 23.6 °F 24.8 °F 75% 30.00 in 10.0 mi West 10.4 mph - N/A   Clear
5:33 PM 32.0 °F 23.6 °F 24.8 °F 75% 30.01 in 10.0 mi West 10.4 mph - N/A   Clear
5:53 PM 32.0 °F 23.0 °F 24.8 °F 75% 30.02 in 10.0 mi West 11.5 mph 17.3 mph N/A   Clear
6:13 PM 32.0 °F 23.0 °F 24.8 °F 75% 30.03 in 10.0 mi WNW 11.5 mph - N/A   Clear
6:33 PM 30.2 °F 21.9 °F 24.8 °F 80% 30.04 in 10.0 mi West 9.2 mph 16.1 mph N/A   Clear
6:52 PM 30.2 °F 21.3 °F 24.8 °F 80% 30.05 in 10.0 mi West 10.4 mph - N/A   Clear
7:13 PM 30.2 °F 21.3 °F 24.8 °F 80% 30.06 in 10.0 mi WNW 10.4 mph - N/A   Clear
7:33 PM 28.4 °F 19.1 °F 24.8 °F 86% 30.06 in 10.0 mi WNW 10.4 mph - N/A   Clear
7:52 PM 28.4 °F 21.2 °F 24.8 °F 86% 30.07 in 10.0 mi WNW 6.9 mph - N/A   Clear
8:13 PM 28.4 °F 20.4 °F 24.8 °F 86% 30.08 in 10.0 mi WNW 8.1 mph - N/A   Clear
8:32 PM 28.4 °F 20.4 °F 23.0 °F 80% 30.08 in 10.0 mi WNW 8.1 mph - N/A   Clear
8:53 PM 26.6 °F 16.8 °F 21.2 °F 80% 30.09 in 10.0 mi NW 10.4 mph - N/A   Clear
9:13 PM 26.6 °F 16.8 °F 21.2 °F 80% 30.10 in 10.0 mi WNW 10.4 mph - N/A   Clear
9:32 PM 26.6 °F 18.2 °F 21.2 °F 80% 30.10 in 10.0 mi NW 8.1 mph - N/A   Clear
9:53 PM 26.6 °F 17.5 °F 21.2 °F 80% 30.10 in 10.0 mi NW 9.2 mph - N/A   Clear
10:13 PM 24.8 °F 16.9 °F 21.2 °F 86% 30.11 in 10.0 mi NW 6.9 mph - N/A   Clear
10:32 PM 24.8 °F 16.1 °F 21.2 °F 86% 30.10 in 10.0 mi NW 8.1 mph - N/A   Clear
10:53 PM 24.8 °F 16.9 °F 21.2 °F 86% 30.11 in 10.0 mi NW 6.9 mph - N/A   Clear
11:13 PM 24.8 °F 17.9 °F 21.2 °F 86% 30.11 in 10.0 mi WNW 5.8 mph - N/A   Clear
11:32 PM 24.8 °F 17.9 °F 21.2 °F 86% 30.11 in 10.0 mi NW 5.8 mph - N/A   Clear
11:53 PM 24.8 °F 17.9 °F 21.2 °F 86% 30.12 in 10.0 mi NW 5.8 mph - N/A   Clear